Regional Weather Roundup
Issued by NWS

Home | Current Version | Previous Version | Text Only | Print | Product List | Glossary Off
Versions: 1 2 3 4 5 6 7 8 9 10 11 12 13 14 15 16 17 18 19 20 21 22 23 24 25 26 27 28

000
ASUS45 KBOI 252310
RWRID

IDAHO REGIONAL WEATHER ROUNDUP
NATIONAL WEATHER SERVICE BOISE ID
500 PM MDT SAT MAR 25 2017

NOTE: "FAIR" INDICATES FEW OR NO CLOUDS BELOW 12000 FEET
WITH NO SIGNIFICANT WEATHER AND/OR OBSTRUCTIONS TO VISIBILITY

IDZ012-014-260000-
SOUTHWEST IDAHO


CITY           SKY/WX    TMP DP  RH WIND       PRES   REMARKS
BOISE          MOSUNNY   57  31  37 N13       30.00F
CALDWELL       MOSUNNY   57  36  45 N8        30.01F
MOUNTAIN HOME  MOSUNNY   56  33  41 NW17      29.99F
$$

IDZ016-017-260000-
SOUTHCENTRAL IDAHO


CITY           SKY/WX    TMP DP  RH WIND       PRES   REMARKS
BURLEY         MOSUNNY   52  26  36 W13G23    29.97S
JEROME         SUNNY     53  25  33 W18G24    29.99F
TWIN FALLS     MOSUNNY   52  28  39 W13       30.00F
$$

IDZ019>023-260000-
SOUTHEAST IDAHO


CITY           SKY/WX    TMP DP  RH WIND       PRES   REMARKS
IDAHO FALLS    PTSUNNY   49  33  54 SW12      29.94F
POCATELLO      PTSUNNY   52  31  44 SW14G20   29.96F
REXBURG        PTSUNNY   47  32  56 SW8       29.94F
$$

IDZ006-010-011-018-031-032-260000-
CENTRAL IDAHO MOUNTAINS


CITY           SKY/WX    TMP DP  RH WIND       PRES   REMARKS
MCCALL         PTSUNNY   40  25  55 SE7       29.98S
HAILEY         MOSUNNY   46  28  49 SW12      29.96F
STANLEY          N/A     41  20  43 N9        29.98S
SALMON         MOSUNNY   52  25  35 N7        29.89F
CHALLIS        MOSUNNY   51  16  24 SW10      29.91S
$$

IDZ002-004-006-007-026-260000-
NORTHERN IDAHO


CITY           SKY/WX    TMP DP  RH WIND       PRES   REMARKS
LEWISTON       CLOUDY    48  40  73 SE8       30.05F
LOWELL           N/A     52  38  58 VRB6      30.02R
COEUR D`ALENE  CLOUDY    47  32  56 SW16G23   30.00R
MULLAN PASS    CLOUDY    29  27  92 W9G18     29.93S WCI  20
$$




USA.gov is the U.S. government's official web portal to all federal, state and local government web resources and services.